Stations météo

réclame
Mon MeteoGroup
Waren, Allemagne (10268): Température de l'air & dewpoint: 09.09.2019 12:00:00 - 15.09.2019 12:00:00 (CEST)Waren, Allemagne (10268): Température de l'air 5cm & Température de l'air -5cm: 09.09.2019 12:00:00 - 15.09.2019 12:00:00 (CEST)Waren, Allemagne (10268): Température de l'air -20cm & Température de l'air -100cm: 09.09.2019 12:00:00 - 15.09.2019 12:00:00 (CEST)Waren, Allemagne (10268): water temperature: 09.09.2019 12:00:00 - 15.09.2019 12:00:00 (CEST)Waren, Allemagne (10268): Vitesse du vent & gusts: 09.09.2019 12:00:00 - 15.09.2019 12:00:00 (CEST)Waren, Allemagne (10268): Direction du vent: 09.09.2019 12:00:00 - 15.09.2019 12:00:00 (CEST)Waren, Allemagne (10268): reduced air pressure: 09.09.2019 12:00:00 - 15.09.2019 12:00:00 (CEST)Waren, Allemagne (10268): visibility: 09.09.2019 12:00:00 - 15.09.2019 12:00:00 (CEST)Waren, Allemagne (10268): Ensoleillement: 09.09.2019 12:00:00 - 15.09.2019 12:00:00 (CEST)Waren, Allemagne (10268): Quantités de précipitations: 09.09.2019 12:00:00 - 15.09.2019 12:00:00 (CEST)
Date & Time tt [°C] td [°C] tt 5cm [°C] tt -5cm [°C] tt -20cm [°C] tt -100cm [°C] tw [°C] ff [km/h] ff [knt] fx [km/h] fx [knt] dd ppp [hPa] vv [km] sd [min] rr [mm]
15.09.2019 12:00:00 17,1 6,9 18,3 18,2 14,6 18,2 16,8 15 8 34 18 WSW 1018,1 58 26 0,0
15.09.2019 11:00:00 15,9 6,6 16,9 17,2 14,1 18,2 16,7 17 9 34 19 WSW 1018,3 44 47 0,0
15.09.2019 10:00:00 14,4 7,2 14,8 13,6 13,8 18,2 16,5 13 7 28 15 SW 1019,1 43 12 0,0
15.09.2019 09:00:00 12,3 6,6 12,4 11,5 13,8 18,2 16,3 15 8 26 14 SW 1019,6 37 12 0,0
15.09.2019 08:00:00 11,0 5,8 10,3 9,7 13,9 18,2 16,5 15 8 23 13 SSW 1020,1 40 0 0,0
15.09.2019 07:00:00 10,6 4,9 9,5 9,2 14,1 18,2 16,6 13 7 25 14 SW 1021,2 44 0 0,0
15.09.2019 06:00:00 11,6 6,8 10,1 9,2 14,4 18,2 16,7 11 6 22 12 SW 1021,6 42 0 0,0
15.09.2019 05:00:00 11,3 5,1 9,3 9,5 14,7 18,2 16,6 11 6 24 13 SSW 1022,8 43 0 0,0
15.09.2019 04:00:00 10,7 5,1 8,9 9,7 15,0 18,2 16,9 9 5 18 10 SW 1024,0 38 0 0,0
15.09.2019 03:00:00 12,1 5,5 10,3 10,3 15,3 18,3 16,8 10 6 21 12 SW 1024,8 45 0 0,0
15.09.2019 02:00:00 12,8 6,6 10,9 10,8 15,6 18,3 17,3 10 5 23 12 SSW 1025,6 38 0 0,0
15.09.2019 01:00:00 13,3 8,9 11,6 11,0 15,9 18,3 17,4 13 7 20 11 S 1026,1 41 0 0,0
15.09.2019 00:00:00 12,6 9,5 9,7 11,0 16,3 18,3 17,8 6 4 13 7 SSW 1027,5 43 0 0,0
14.09.2019 23:00:00 11,1 10,2 7,2 11,2 16,8 18,3 18,0 4 2 6 3 S 1028,5 30 0 0,0
14.09.2019 22:00:00 11,9 9,6 7,5 12,0 17,4 18,3 18,1 4 2 5 3 SE 1029,1 34 0 0,0
14.09.2019 21:00:00 12,2 9,2 8,0 13,3 17,9 18,3 18,2 5 3 8 4 SSE 1029,3 42 0 0,0
14.09.2019 20:00:00 13,7 7,4 9,5 15,2 18,4 18,4 18,3 4 2 8 5 WNW 1030,1 40 17 0,0
14.09.2019 19:00:00 15,8 6,6 14,2 17,7 18,7 18,4 18,3 5 3 10 5 W 1030,1 42 52 0,0
14.09.2019 18:00:00 16,2 6,0 15,7 19,2 18,8 18,4 18,3 7 4 17 9 SW 1030,5 41 36 0,0
14.09.2019 17:00:00 17,3 5,7 19,3 21,1 18,6 18,4 18,3 10 5 22 12 WSW 1031,2 45 60 0,0
14.09.2019 16:00:00 17,4 5,3 19,8 22,1 18,0 18,4 18,4 13 7 35 19 W 1032,0 44 60 0,0
14.09.2019 15:00:00 17,4 6,0 20,6 22,4 17,4 18,4 18,2 10 6 19 10 SW 1032,6 43 44 0,0
14.09.2019 14:00:00 17,1 7,6 20,9 22,4 16,7 18,5 17,9 9 5 23 13 W 1033,3 34 51 0,0
14.09.2019 13:00:00 16,1 7,2 20,2 22,3 15,9 18,5 17,8 10 5 19 10 SW 1033,6 51 43 0,0
14.09.2019 12:00:00 14,9 7,7 15,9 19,3 15,2 18,5 17,7 8 4 17 9 WNW 1034,4 41 37 0,0
14.09.2019 11:00:00 15,0 8,1 18,7 19,0 14,4 18,5 17,4 11 6 21 11 W 1034,4 36 57 0,0
14.09.2019 10:00:00 13,7 9,2 16,2 16,4 13,8 18,5 17,3 11 6 17 9 WNW 1034,6 34 60 0,0
14.09.2019 09:00:00 11,6 9,1 12,5 12,3 13,7 18,5 17,3 6 3 14 7 W 1034,1 32 46 0,0
14.09.2019 08:00:00 9,7 8,6 9,1 9,2 13,8 18,5 17,3 9 5 11 6 W 1034,2 32 42 0,0
14.09.2019 07:00:00 8,4 7,8 4,4 7,7 14,1 18,5 17,3 5 3 7 4 W 1034,0 25 0 0,0
14.09.2019 06:00:00 8,0 7,3 4,1 8,0 14,5 18,5 17,4 3 2 5 3 W 1034,2 28 0 0,0
14.09.2019 05:00:00 8,5 7,7 4,8 8,6 14,9 18,5 17,5 4 2 11 6 NNW 1033,9 33 0 0,0
14.09.2019 04:00:00 9,6 8,1 7,2 9,3 15,2 18,5 17,6 6 3 12 6 WNW 1033,5 35 0 0,0
14.09.2019 03:00:00 9,8 8,2 6,2 9,7 15,6 18,5 17,6 4 2 12 6 NW 1033,6 36 0 0,0
14.09.2019 02:00:00 10,4 8,2 7,3 10,2 16,0 18,5 17,7 4 2 15 8 NW 1033,8 35 0 0,0
14.09.2019 01:00:00 10,9 8,2 8,3 10,7 16,4 18,5 17,8 6 4 11 6 W 1033,5 36 0 0,0
14.09.2019 00:00:00 12,0 8,3 9,8 11,3 16,8 18,5 17,9 5 3 14 8 WNW 1033,1 37 0 0,0
13.09.2019 23:00:00 12,3 8,3 9,7 11,9 17,3 18,5 18,0 8 4 13 7 WNW 1032,8 36 0 0,0
13.09.2019 22:00:00 12,8 8,5 9,3 12,9 17,7 18,5 18,0 5 3 10 6 WNW 1032,3 36 0 0,0
13.09.2019 21:00:00 13,1 8,0 9,4 13,6 18,2 18,5 18,2 4 2 13 7 WNW 1032,0 40 0 0,0
13.09.2019 20:00:00 15,1 7,3 13,1 14,9 18,7 18,6 18,3 5 3 14 8 NW 1031,4 40 0 0,0
13.09.2019 19:00:00 16,0 6,9 14,6 16,2 19,1 18,6 18,3 6 4 29 16 NW 1030,7 51 4 0,0
13.09.2019 18:00:00 16,9 6,8 16,7 17,6 19,3 18,6 18,4 11 6 40 21 NNW 1030,4 43 43 0,0
13.09.2019 17:00:00 17,7 5,7 19,2 19,0 19,4 18,6 18,7 17 9 41 22 NW 1030,2 49 59 0,0
13.09.2019 16:00:00 18,3 5,7 20,1 19,9 19,2 18,6 18,7 16 9 42 23 NNW 1029,5 59 60 0,0
13.09.2019 15:00:00 17,7 7,7 20,0 20,9 18,7 18,6 18,7 19 10 39 21 NW 1029,2 41 46 0,0
13.09.2019 14:00:00 18,6 9,0 21,5 21,6 18,2 18,6 18,3 18 10 39 21 NW 1028,5 45 42 0,0
13.09.2019 13:00:00 17,3 11,1 18,5 20,9 17,6 18,6 18,2 14 8 37 20 NW 1027,7 69 34 0,0
13.09.2019 12:00:00 17,1 13,2 18,3 19,8 17,2 18,6 17,9 14 8 35 19 NW 1026,7 49 9 1,5
13.09.2019 11:00:00 16,6 16,0 16,4 17,3 17,1 18,6 17,7 13 7 30 16 WNW 1025,3 2,6 0 4,3
13.09.2019 10:00:00 18,1 15,0 18,5 17,3 16,9 18,6 17,6 15 8 32 17 WSW 1024,6 33 0 0,0
13.09.2019 09:00:00 17,3 14,4 17,3 16,2 16,8 18,6 17,6 13 7 27 15 WSW 1024,3 39 0 0,0
13.09.2019 08:00:00 16,8 14,0 16,5 15,4 16,8 18,6 17,7 16 9 31 17 WSW 1024,0 42 0 0,0
13.09.2019 07:00:00 16,1 13,7 15,3 14,9 16,9 18,6 17,8 12 7 23 12 SSW 1023,7 26 0 0,0
13.09.2019 06:00:00 16,1 13,9 15,6 14,7 17,0 18,6 17,8 12 7 18 10 SSW 1023,6 23 0 0,0
13.09.2019 05:00:00 15,8 13,4 15,0 14,4 17,1 18,6 17,9 10 6 16 9 SSW 1023,9 23 0 0,0
13.09.2019 04:00:00 15,7 13,2 14,1 14,5 17,3 18,6 18,0 8 4 18 10 SW 1024,2 29 0 0,0
13.09.2019 03:00:00 16,1 12,8 15,2 14,7 17,4 18,6 18,1 11 6 21 11 SW 1024,6 34 0 0,0
13.09.2019 02:00:00 16,5 12,6 15,7 14,7 17,6 18,6 18,1 8 4 15 8 SW 1024,8 41 0 0,0
13.09.2019 01:00:00 15,4 12,2 13,7 14,0 17,9 18,6 18,2 9 5 11 6 SSW 1025,2 40 0 0,0
13.09.2019 00:00:00 15,0 12,5 12,3 14,4 18,3 18,6 18,2 6 3 8 4 S 1025,7 41 0 0,0
12.09.2019 23:00:00 15,6 12,2 11,5 14,9 18,8 18,6 18,3 6 3 10 5 SSW 1025,9 43 0 0,0
12.09.2019 22:00:00 15,8 12,3 12,0 15,9 19,2 18,6 18,2 5 3 10 5 SW 1026,1 40 0 0,0
12.09.2019 21:00:00 17,2 12,2 13,4 17,1 19,6 18,6 18,3 6 3 12 7 WSW 1026,0 49 0 0,0
12.09.2019 20:00:00 18,3 11,7 16,5 18,5 20,0 18,6 18,3 8 5 18 10 W 1025,7 59 0 0,0
12.09.2019 19:00:00 19,5 11,4 18,8 20,4 20,1 18,6 18,4 12 7 22 12 W 1025,4 61 57 0,0
12.09.2019 18:00:00 20,5 12,0 21,5 22,0 20,0 18,6 18,5 12 6 31 17 W 1025,3 41 58 0,0
12.09.2019 17:00:00 20,6 11,7 22,0 22,5 19,8 18,6 18,5 17 9 32 18 WSW 1025,4 50 37 0,0
12.09.2019 16:00:00 19,9 11,7 20,8 22,7 19,7 18,6 18,4 14 8 26 14 WSW 1025,5 46 25 0,0
12.09.2019 15:00:00 19,9 12,6 21,7 23,3 19,3 18,6 18,4 8 4 25 13 WSW 1025,6 53 10 0,0
12.09.2019 14:00:00 19,4 11,4 22,0 24,4 18,6 18,7 18,3 10 6 26 14 WSW 1025,8 43 45 0,0
12.09.2019 13:00:00 20,0 11,1 24,0 24,3 17,9 18,7 18,1 15 8 26 14 W 1025,6 39 41 0,0
12.09.2019 12:00:00 18,3 11,8 21,6 22,5 17,3 18,7 17,9 12 6 28 15 SW 1025,8 59 56 0,0
12.09.2019 11:00:00 17,4 12,7 18,8 21,2 16,7 18,7 17,6 14 7 29 15 W 1025,3 50 47 0,0
12.09.2019 10:00:00 16,0 13,7 16,1 17,0 16,5 18,7 17,4 10 5 20 11 WSW 1025,0 26 8 0,0
12.09.2019 09:00:00 15,2 14,0 15,0 15,5 16,4 18,7 17,4 8 5 18 10 SW 1024,3 16 0 0,0
12.09.2019 08:00:00 14,5 13,5 14,2 14,8 16,5 18,7 17,4 8 4 16 9 SW 1023,8 16 0 0,0
12.09.2019 07:00:00 14,5 13,5 14,0 14,6 16,5 18,7 17,4 8 5 18 10 SW 1023,2 15 0 0,0
12.09.2019 06:00:00 14,3 13,3 13,9 14,5 16,6 18,7 17,5 9 5 18 10 SW 1022,8 17 0 0,0
12.09.2019 05:00:00 14,4 13,2 13,9 14,6 16,7 18,7 17,6 12 6 20 11 WSW 1022,3 19 0 0,0
12.09.2019 04:00:00 14,3 13,2 13,8 14,6 16,8 18,7 17,6 10 5 23 12 WSW 1022,1 26 0 0,0
12.09.2019 03:00:00 14,2 13,3 13,8 14,6 16,9 18,8 17,7 13 7 23 12 WSW 1021,5 21 0 0,0
12.09.2019 02:00:00 14,1 13,3 13,7 14,6 17,1 18,8 17,8 12 6 26 14 WSW 1021,1 21 0 0,1
12.09.2019 01:00:00 13,9 13,4 13,6 14,7 17,3 18,8 17,9 12 7 34 18 SW 1020,6 4,9 0 0,8
12.09.2019 00:00:00 15,7 11,8 15,4 15,1 17,5 18,8 18,0 19 10 39 21 WSW 1020,3 39 0 0,0
11.09.2019 23:00:00 17,2 10,1 16,5 15,4 17,7 18,8 18,0 14 7 28 15 SW 1020,1 41 0 0,0
11.09.2019 22:00:00 18,2 8,9 17,3 15,9 17,9 18,8 18,1 12 7 23 12 SSW 1019,6 50 0 0,0
11.09.2019 21:00:00 18,2 11,2 17,3 16,1 18,2 18,9 18,2 13 7 20 11 SSW 1019,4 56 0 0,0
11.09.2019 20:00:00 18,8 8,2 17,5 16,7 18,5 18,9 18,3 12 7 24 13 SSW 1019,4 42 0 0,0
11.09.2019 19:00:00 19,3 8,3 18,3 18,0 18,7 18,9 18,4 14 8 24 13 SSW 1019,2 49 0 0,0
11.09.2019 18:00:00 19,6 8,1 19,1 19,3 18,8 18,9 18,4 11 6 31 17 SW 1019,3 48 0 0,0
11.09.2019 17:00:00 20,2 7,7 20,5 20,7 18,7 19,0 18,5 16 9 36 19 SSW 1019,4 39 27 0,0
11.09.2019 16:00:00 20,2 7,2 21,2 21,3 18,4 19,0 18,4 16 9 41 22 SW 1019,7 27 38 0,0
11.09.2019 15:00:00 19,9 7,5 21,0 21,9 18,0 19,0 18,2 18 10 43 23 SSW 1020,0 41 31 0,0
11.09.2019 14:00:00 20,0 9,4 22,9 22,8 17,3 19,0 17,8 20 11 40 22 SSW 1020,4 40 57 0,0
11.09.2019 13:00:00 18,5 8,4 20,1 22,1 16,6 19,1 17,6 19 11 34 18 SSW 1020,7 25 58 0,0
11.09.2019 12:00:00 17,9 10,4 20,5 21,6 15,8 19,1 17,5 17 9 29 16 SSW 1021,2 45 60 0,0
11.09.2019 11:00:00 16,2 10,5 18,5 19,4 15,0 19,1 17,3 18 10 31 17 SSW 1021,5 42 60 0,0
11.09.2019 10:00:00 14,5 9,9 16,7 17,0 14,5 19,1 17,0 13 7 25 13 SSW 1021,3 37 60 0,0
11.09.2019 09:00:00 12,8 9,2 14,4 13,9 14,4 19,1 16,9 9 5 14 8 SW 1021,1 36 60 0,0
11.09.2019 08:00:00 10,8 8,4 10,9 10,6 14,5 19,2 16,8 7 4 15 8 SSW 1020,7 45 52 0,0
11.09.2019 07:00:00 10,2 8,7 8,7 9,9 14,8 19,2 16,9 10 5 18 10 SSW 1020,7 45 0 0,0
11.09.2019 06:00:00 11,2 9,5 9,7 10,4 15,0 19,2 17,0 11 6 16 9 SSW 1019,8 43 0 0,0
11.09.2019 05:00:00 11,5 10,0 9,9 10,8 15,3 19,2 17,1 8 5 16 9 SW 1019,7 44 0 0,0
11.09.2019 04:00:00 12,0 10,2 10,7 11,3 15,6 19,2 17,4 8 5 17 9 SW 1019,6 49 0 0,0
11.09.2019 03:00:00 12,7 10,4 10,9 11,8 15,8 19,3 17,5 7 4 19 10 SW 1019,3 47 0 0,0
11.09.2019 02:00:00 13,8 10,5 12,4 12,5 16,0 19,3 17,6 11 6 23 12 W 1018,8 49 0 0,0
11.09.2019 01:00:00 14,4 10,7 13,1 13,3 16,1 19,3 17,7 9 5 19 11 SW 1018,4 53 0 0,0
11.09.2019 00:00:00 15,2 11,0 14,4 13,5 16,3 19,3 17,7 12 7 27 14 WSW 1017,9 52 0 0,0
10.09.2019 23:00:00 15,2 10,8 14,3 13,6 16,4 19,4 17,8 11 6 25 14 W 1017,4 53 0 0,0
10.09.2019 22:00:00 15,6 10,0 14,8 13,6 16,6 19,4 17,9 16 8 28 15 W 1017,1 57 0 0,0
10.09.2019 21:00:00 15,5 10,0 14,4 13,8 16,8 19,4 17,9 15 8 41 22 W 1016,5 62 0 0,0
10.09.2019 20:00:00 16,3 9,2 15,5 14,4 17,0 19,4 18,0 18 10 33 18 W 1016,1 67 0 0,0
10.09.2019 19:00:00 16,6 9,0 16,0 15,0 17,1 19,5 18,1 16 9 38 20 W 1015,2 53 3 0,0
10.09.2019 18:00:00 17,0 9,0 16,8 16,0 17,1 19,5 18,2 19 11 41 22 WSW 1014,6 46 2 0,0
10.09.2019 17:00:00 17,1 9,3 17,0 16,0 17,1 19,5 18,2 17 9 37 20 WSW 1014,0 51 0 0,0
10.09.2019 16:00:00 17,3 9,8 18,2 17,3 16,9 19,5 18,3 18 10 49 26 WSW 1013,5 50 14 0,0
10.09.2019 15:00:00 16,7 10,4 17,3 16,3 16,8 19,6 18,3 19 11 43 23 WSW 1013,0 52 0 0,0
10.09.2019 14:00:00 16,7 11,0 18,1 16,6 16,7 19,6 18,3 21 11 41 22 WSW 1012,5 45 0 0,0
10.09.2019 13:00:00 15,3 11,8 15,2 16,3 16,4 19,6 18,2 20 11 46 25 WSW 1012,1 50 0 0,0
10.09.2019 12:00:00 15,0 11,6 14,8 16,1 16,1 19,6 18,3 22 12 44 24 W 1011,6 70 0 0,0
10.09.2019 11:00:00 14,2 12,3 14,1 15,0 16,0 19,6 18,2 22 12 41 22 W 1011,0 43 0 0,1
10.09.2019 10:00:00 13,5 12,2 13,3 14,1 15,9 19,7 18,2 22 12 42 23 W 1010,5 12 0 0,2
10.09.2019 09:00:00 13,4 11,8 12,9 13,6 15,9 19,7 18,0 23 13 42 23 W 1010,2 11 0 0,0
10.09.2019 08:00:00 12,6 11,2 12,0 12,7 16,0 19,7 18,0 20 11 36 20 W 1009,8 39 0 0,0
10.09.2019 07:00:00 12,1 10,9 11,5 12,5 16,2 19,7 17,6 23 12 41 22 W 1009,5 24 0 0,4
10.09.2019 06:00:00 12,1 11,1 11,6 12,7 16,3 19,7 18,0 22 12 46 25 W 1009,2 20 0 0,3
10.09.2019 05:00:00 12,2 11,2 11,7 12,9 16,5 19,7 17,9 21 12 41 22 W 1008,9 18 0 0,1
10.09.2019 04:00:00 12,3 11,4 11,9 13,2 16,7 19,8 17,9 19 11 33 18 W 1009,1 20 0 0,1
10.09.2019 03:00:00 12,5 11,5 12,1 13,4 16,9 19,8 18,0 21 11 34 19 W 1009,2 23 0 0,4
10.09.2019 02:00:00 12,7 11,8 12,3 13,7 17,1 19,8 18,1 17 9 28 15 WNW 1009,4 5 0 0,4
10.09.2019 01:00:00 12,7 12,0 12,5 13,9 17,3 19,8 18,3 14 7 26 14 WNW 1009,5 6 0 0,7
10.09.2019 00:00:00 12,9 12,2 12,7 14,2 17,5 19,8 18,3 14 8 27 15 W 1009,5 11 0 0,2
09.09.2019 23:00:00 13,2 12,7 13,0 14,6 17,7 19,8 18,4 13 7 25 14 W 1009,4 4,9 0 0,2
09.09.2019 22:00:00 13,5 13,0 13,5 15,0 17,8 19,8 18,5 8 5 14 8 WNW 1009,6 6 0 0,0
09.09.2019 21:00:00 13,5 13,0 13,5 15,2 18,0 19,9 18,5 5 3 10 5 W 1009,8 11 0 0,4
09.09.2019 20:00:00 13,6 13,0 13,6 15,6 18,1 19,9 18,4 4 2 8 4 WNW 1009,6 4,6 0 0,2
09.09.2019 19:00:00 13,8 13,2 13,8 15,9 18,3 19,9 18,4 3 1 11 6 NW 1009,4 28 0 0,1
09.09.2019 18:00:00 13,6 13,0 13,6 16,1 18,4 19,9 18,5 9 5 23 12 ENE 1009,5 5 0 2,2
09.09.2019 17:00:00 15,3 13,8 15,2 17,5 18,3 19,9 18,5 4 2 8 4 N 1009,5 52 0 0,1
09.09.2019 16:00:00 15,1 13,7 15,4 17,2 18,2 19,9 18,6 4 2 14 8 NNW 1009,7 23 0 0,0
09.09.2019 15:00:00 14,4 13,3 14,6 16,8 18,1 19,9 18,5 10 6 23 12 WNW 1009,8 54 0 0,1
09.09.2019 14:00:00 14,1 12,9 14,1 16,1 18,1 19,9 18,4 9 5 27 14 NNW 1010,5 26 0 0,3
09.09.2019 13:00:00 14,2 13,2 14,2 15,9 18,2 19,9 18,4 11 6 24 13 NW 1011,0 24 0 2,3
09.09.2019 12:00:00 13,9 13,2 14,0 15,4 18,3 19,9 18,3 6 3 20 11 NW 1011,7 13 0 2,7

tt = Température de l'air
td = dewpoint
tt 5cm = Température de l'air 5cm
tt -5cm = Température de l'air -5cm
tt -20cm = Température de l'air -20cm
tt -100cm = Température de l'air -100cm
tw = water temperature
ff = Vitesse du vent
fx = gusts
dd = Direction du vent
ppp = reduced air pressure
vv = visibility
sd = Ensoleillement
rr = Quantités de précipitations

stations d'obs. à proximité